Flag for Norway Weather past 2 weeks in Tananger, Norway

Now
36 °F

Passing clouds.


Feels Like: 36 °F
Forecast: 35 / 46 °F
Wind: 1 mph from North

Location: Stavanger / Sola

Current Time: Apr 27, 2015 at 2:22:21 AM

Latest Report: Apr 27, 2015 at 1:50 AM


Visibility: N/A

Pressure: 29.68 "Hg

Humidity: 87%

Dew point: 32 °F

Location of TanangerLocation

Historic Weather in Tananger — Graph

°F

Tananger temperature yesterday

Maximum temperature yesterday: 46 °F (at 11:20 AM)
Minimum temperature yesterday: 39 °F (at 7:20 AM)
Average temperature yesterday: 44 °F

Past Weeks' High & Low Weather Summary

 TemperatureHumidityPressure
High61 °F (Apr 20, 11:20 AM)100% (Apr 12, 5:50 AM)30.45 "Hg (Apr 12, 5:50 AM)
Low34 °F (Apr 17, 5:20 AM)41% (Apr 19, 11:20 AM)29.30 "Hg (Apr 25, 1:50 PM)
Average45 °F79%30.02 "Hg
* Reported Apr 12 12:20 AM — Apr 27 12:50 AM, Tananger, Weather by CustomWeather, © 2015

Note: Actual official high and low records may vary slightly from our data, if they occured in-between our weather recording intervals... More about our weather records

Advertising

Tananger weather history for previous 24 hours

 ConditionsComfort  
Time TempWeatherWind HumidityBarometerVisibility
12:50 AM
Mon, Apr 27
37 °FPassing clouds.2 mph87%29.68 "HgN/A
12:20 AM37 °FPassing clouds.1 mph87%29.68 "HgN/A
11:50 PM
Sun, Apr 26
39 °FPassing clouds.3 mph81%29.68 "HgN/A
11:20 PM39 °FPassing clouds.1 mph81%29.68 "HgN/A
10:50 PM41 °FPassing clouds.1 mph76%29.68 "HgN/A
10:20 PM41 °FPassing clouds.1 mph76%29.68 "HgN/A
9:50 PM41 °FPassing clouds.2 mph76%29.68 "HgN/A
9:20 PM43 °FPassing clouds.6 mph71%29.68 "HgN/A
8:50 PM43 °FScattered clouds.7 mph71%29.68 "HgN/A
8:20 PM43 °FScattered clouds.6 mph71%29.68 "HgN/A
7:50 PM45 °FScattered clouds.8 mph71%29.68 "HgN/A
7:20 PM46 °FScattered clouds.10 mph66%29.68 "HgN/A
6:50 PM46 °FScattered clouds.10 mph71%29.68 "HgN/A
6:20 PM46 °FScattered clouds.10 mph62%29.68 "HgN/A
5:50 PM46 °FScattered clouds.10 mph66%29.68 "HgN/A
5:20 PM46 °FScattered showers. Scattered clouds.10 mph66%29.68 "HgN/A
4:50 PM46 °FScattered showers. Scattered clouds.13 mph66%29.68 "HgN/A
4:20 PM46 °FPartly sunny.10 mph66%29.68 "HgN/A
3:50 PM46 °FScattered showers. Partly sunny.8 mph66%29.68 "HgN/A
3:20 PM46 °FScattered clouds.9 mph71%29.68 "HgN/A
2:50 PM46 °FScattered clouds.9 mph66%29.68 "HgN/A
2:20 PM46 °FScattered showers. Scattered clouds.10 mph71%29.68 "HgN/A
1:50 PM45 °FRain showers. Broken clouds.15 mph71%29.65 "HgN/A
1:20 PM46 °FScattered clouds.15 mph71%29.65 "HgN/A
12:50 PM46 °FBroken clouds.15 mph71%29.65 "HgN/A
12:20 PM46 °FBroken clouds.14 mph71%29.65 "HgN/A
11:50 AM46 °FScattered showers. Scattered clouds.16 mph71%29.62 "HgN/A
11:20 AM46 °FScattered clouds.15 mph66%29.62 "HgN/A
10:50 AM45 °FScattered showers. Scattered clouds.14 mph76%29.62 "HgN/A
10:20 AM45 °FScattered showers. Broken clouds.10 mph76%29.62 "HgN/A
9:50 AM43 °FScattered clouds.10 mph76%29.59 "HgN/A
9:20 AM43 °FScattered clouds.10 mph81%29.59 "HgN/A
8:50 AM43 °FScattered clouds.10 mph76%29.59 "HgN/A
8:20 AM43 °FScattered showers. Scattered clouds.10 mph76%29.59 "HgN/A
7:50 AM39 °FScattered showers. Scattered clouds.5 mph87%29.56 "HgN/A
7:20 AM39 °FScattered showers. Scattered clouds.5 mph81%29.56 "HgN/A
6:50 AM43 °FScattered showers. Partly cloudy.8 mph71%29.56 "HgN/A
6:20 AM43 °FScattered showers. Passing clouds.7 mph76%29.53 "HgN/A
5:50 AM43 °FPassing clouds.8 mph71%29.53 "HgN/A
4:50 AM41 °FPassing clouds.10 mph76%29.53 "HgN/A
3:50 AM43 °FPassing clouds.13 mph76%29.53 "HgN/A
2:50 AM43 °FPassing clouds.14 mph76%29.50 "HgN/A
Weather by CustomWeather, © 2015

See weather overviewHow to use our weather pages